FENGYUN 1C DEB, 31997

Orbit data source: Space-Track

FENGYUN 1C DEB, 31997 is space debris in SSO originally from a launch on Mon, 10 May 1999 UTC launched from the Taiyaun Space Center, China (TSC). Fengyun 1C debris stems from the Chinese weather satellite Fengyun-1C, which was intentionally destroyed by a Chinese anti-satellite missile in 2007. This event dramatically increased the amount of space debris, with thousands of trackable fragments posing hazards to satellites and human spaceflight. The Fengyun 1C debris cloud has become a focal point in discussions about space sustainability and the need for international regulations to prevent the creation of new debris.

Loading next visibility...
Identifier
31997, 1999-025CQA
Orbit
SSO
Country
Flag of CNCN / PRC
Related business
Manufacturer
Unknown
Mission
Spacecraft
Bus & Motor
Unknown
Mass
Unknown
Launch date (UTC)
1999-05-10 (27 years ago)
Launch vehicle
Unknown
Launch site
Taiyaun Space Center, China (TSC)
Object type
Payload
Rocket body
Debris
Shape & HBR
Unknown shape, 0.1 m
Radar Cross Section
Small (<0.1 m²)

Expand to show TLE details & history
Last TLE update: 2 days ago

TLE from 2 days ago
0 FENGYUN 1C DEB
1 31997U 99025CQA 25311.36278961  .00002554  00000-0  26507-2 0  9996
2 31997 102.5112 345.0628 0287424 354.1296   5.6493 13.60471142612025
Epoch: 2025-11-07T08:42Z
TLE epoch observation values (Epoch: 2025-11-07T08:42:25.022Z)
Latitude
0.00001°
Longitude
167.6507°
Altitude
824.691 km
Speed
7.546 km/s
True Right ascension
23h 00m 15s
True Declination
0° 00' 00"
Sunlit
Object was in full shadow at epoch
Visualization orbit readout
Latitude
Unknown
Longitude
Unknown
Altitude
Unknown
Speed
Unknown
Apparent Right ascension
Unknown
Apparent Declination
Unknown
Sunlit
N/A
Visualization observer readout
Local Sidereal Time
07:15:08
Azimuth
Unknown
Elevation
Unknown
Doppler factor
Unknown
Orbital elements
Apogee altitude
1,244.398 km
Perigee altitude
818.461 km
Semi-major axis
7,409.567 km
Eccentricity
0.02874
Inclination
102.5112°
RAAN
345.0628°
Arg. of periapsis
354.1296°
True anomaly
5.98552°
Mean anomaly
5.6493°
Eccentric anomaly
5.81618°
Mean motion
3.40294 °/min
Orbital period
105.79 mins
BSTAR
0.0026507
Loading maneuver chart data...
Computing Atmospheric mass density...

Documentation

Showing up to 5 results
|